GSAT0103 (GALILEO-FM3) 1 38857U 12055A 21108.60448283 .00000051 00000-0 00000+0 0 9996 2 38857 55.0308 153.3829 0004866 265.7772 94.2445 1.70473780 53008 GSAT0104 (GALILEO-FM4) 1 38858U 12055B 21105.01962709 .00000045 00000-0 00000+0 0 9996 2 38858 55.0289 153.4809 0004061 265.8558 94.1872 1.70459340 52903 FREGAT R/B 1 38859U 12055C 21109.28496031 .00000050 00000-0 00000-0 0 9997 2 38859 55.0035 157.4841 0005017 315.2120 44.8269 1.66706578 51858